Starlink 5719

operational
NORAD ID: 55609 Int'l Des: 2023-020 Owner: SPXS Country: US Constellation: starlink
LEOCIRCULAR

About Starlink 5719

Description loading...

Live Position

Loading 3D Globe...

Upcoming Passes

Altitude History

Altitude vs Time

uPlot chart will show altitude changes over time

Two-Line Element Set

1 55609U 23020AS 26062.22104273 -.00000658 00000-0 -33676-4 0 9999
2 55609 43.0050 27.0367 0001354 254.5734 105.4959 15.02533733168096
Epoch: Mar 3, 2026 • Age: 21 hours

Current Status

Altitude 563.8 km
Velocity 7.58 km/s
Sub-Earth Point -21.77°S, 120.12°W
Launch Date Feb 12, 2023
Age 3 years
Type internet

Technical Details

Classification Payload
Mass 305.00 kg
Dry Mass 290.00 kg
Total Mass 305.00 kg
Length 0.20 m
Diameter 2.80 m
Span 9.00 m
Shape Box + pan
Manufacturer SPXS
Bus Type Starlink
Phase Status In Orbit
Owner/State SPXS/US

Large Constellations

Loading constellations...